Location: Pandora
(40.9481°N, 83.9611°W)
Time: 17:48:25
(UTC-04:00)

ISS - Pass Details

Date: 02 October 2021
Orbit: 417 x 423 km, 51.6° (Epoch: 19 October)

Event Time Altitude Azimuth Distance (km) Brightness Sun altitude
Rises 21:18:05 0° 304° (NW) 2,364 1.3 -23.7°
Reaches altitude 10° 21:20:11 10° 303° (WNW) 1,498 0.0 -24.1°
Enters shadow 21:22:22 37° 293° (WNW) 668 -2.3 -24.5°
